Location: Devore Heights
(34.2372°N, 117.4156°W)
Time: 00:44:15
(UTC+00:00)

Vanguard 2 Rocket - Pass Details

Date: 13 September 2024
Orbit: 553 x 3298 km, 32.9° (Epoch: 09 October)

Event Time Altitude Azimuth Distance (km) Brightness Sun altitude
Exits shadow 11:03:13 47° 255° (WSW) 2,886 8.9 -30.1°
Maximum altitude 11:08:56 84° 172° (S) 2,676 9.0 -29.1°
Drops below altitude 10° 11:28:43 10° 88° (E) 6,237 12.0 -25.4°
Sets 11:33:41 0° 88° (E) 7,274 12.6 -24.5°
